GW1990 Weather Reports


time (UTC)temp
F
wind
direction
speed
knots
gust
knots
rain 1hr
in
rain 24hr
in
rain mn
in
humidity
%
barometer
mb
20260505122150 53 13 0.9 1.7 0.00 0.22 0.22 99 993.5
20260505121647 53 43 0.9 0.9 0.00 0.22 0.22 99 993.5
20260505121143 53 59 0.9 1.7 0.00 0.22 0.22 99 993.4
20260505120639 53 44 0.0 0.9 0.00 0.22 0.22 99 993.2
20260505120136 53 51 0.0 0.0 0.00 0.22 0.22 99 993.0
20260505115629 53 52 0.9 0.9 0.00 0.22 0.22 99 993.2
20260505115127 54 53 0.9 0.9 0.00 0.22 0.22 99 993.0
20260505114624 54 50 0.0 0.9 0.00 0.22 0.22 99 992.9
20260505114120 54 48 0.0 0.0 0.00 0.22 0.22 99 992.6
20260505113617 54 48 0.0 0.0 0.00 0.22 0.22 99 992.8
20260505113114 54 33 0.0 0.9 0.00 0.22 0.22 99 992.6
20260505112610 54 45 0.9 0.9 0.00 0.22 0.22 99 992.8
20260505112108 54 29 1.7 2.6 0.00 0.22 0.22 99 992.7
20260505111602 55 35 0.9 1.7 0.00 0.22 0.22 99 992.7
20260505111058 55 36 0.9 0.9 0.07 0.22 0.22 99 993.1
20260505110554 55 23 1.7 2.6 0.07 0.22 0.22 99 992.8
20260505102027 59 31 1.7 1.7 0.00 0.19 0.19 99 992.4
20260505101526 59 326 2.6 2.6 0.00 0.19 0.19 99 992.4
20260505101022 59 37 0.9 0.9 0.00 0.19 0.19 99 992.1
20260505100519 59 58 0.0 0.0 0.00 0.19 0.19 99 992.2
20260505100016 59 64 0.0 0.0 0.00 0.19 0.19 99 992.0
20260505095511 59 57 0.0 0.0 0.00 0.19 0.19 99 991.7
20260505095008 59 35 0.0 0.9 0.00 0.19 0.19 99 991.7
20260505094504 59 49 0.0 0.0 0.00 0.19 0.19 99 991.5
20260505094001 59 43 0.0 0.0 0.00 0.19 0.19 99 991.5
20260505093457 59 92 0.0 0.0 0.00 0.19 0.19 99 991.7
20260505092955 59 37 0.0 0.9 0.07 0.19 0.19 99 991.6
20260505092452 59 57 0.0 0.0 0.12 0.19 0.19 99 991.4
20260505091950 59 79 0.9 0.9 0.24 0.19 0.19 99 991.1
20260505091447 59 70 0.0 0.0 0.12 0.17 0.17 99 991.1
20260505090945 59 87 0.0 0.9 0.00 0.15 0.15 99 991.5
20260505090443 59 68 0.0 0.0 0.00 0.15 0.15 99 991.3
20260505085940 59 81 0.9 0.9 0.00 0.15 0.15 99 991.1
20260505085438 59 74 0.0 0.9 0.00 0.15 0.15 99 991.1
20260505084936 59 63 0.9 0.9 0.00 0.15 0.15 99 991.0
20260505084434 59 80 0.9 0.9 0.00 0.15 0.15 99 991.1
20260505083931 59 78 0.0 0.9 0.00 0.15 0.15 99 991.1
20260505083429 59 79 0.9 0.9 0.00 0.15 0.15 99 991.0
20260505082925 59 84 0.9 1.7 0.00 0.15 0.15 98 991.2
20260505082420 59 78 0.0 0.0 0.00 0.15 0.15 98 991.0
20260505081918 59 64 0.0 0.0 0.00 0.15 0.15 98 991.4
20260505081415 60 70 0.0 0.0 0.00 0.15 0.15 98 991.0
20260505080911 60 79 0.9 0.9 0.00 0.15 0.15 98 990.8
20260505080407 60 77 0.9 0.9 0.00 0.15 0.15 97 991.2
20260505075903 60 79 0.9 0.9 0.00 0.15 0.15 97 991.1
20260505075400 60 73 0.0 0.0 0.00 0.15 0.15 97 991.2
20260505074857 60 71 0.0 0.9 0.00 0.15 0.15 96 991.1
20260505074354 60 69 0.0 0.0 0.12 0.15 0.15 96 991.7
20260505073851 60 64 0.0 0.0 0.19 0.15 0.15 95 991.8
20260505073349 60 60 0.0 0.0 0.17 0.14 0.14 94 992.3
20260505072846 60 58 0.0 0.0 0.42 0.12 0.12 93 992.6
20260505072342 61 43 0.9 0.9 0.66 0.11 0.11 91 992.6
20260505071838 62 330 2.6 4.3 0.40 0.07 0.07 87 993.2
20260505071335 66 304 5.2 7.0 0.05 0.01 0.01 77 993.2
20260505070833 68 345 5.2 7.8 0.00 0.00 0.00 72 993.1
20260505070329 68 312 1.7 2.6 0.00 0.00 0.00 72 992.6
20260505065824 68 320 1.7 4.3 0.00 0.00 0.00 72 992.1
20260505065322 68 3 2.6 7.0 0.00 0.00 0.00 73 991.7
20260505064819 68 17 4.3 7.0 0.00 0.00 0.00 74 992.0
20260505064315 68 318 0.9 0.9 0.00 0.00 0.00 73 990.6
20260505063814 68 246 2.6 5.2 0.00 0.00 0.00 72 990.5
20260505063309 68 270 2.6 4.3 0.00 0.00 0.00 74 990.3
20260505062806 68 226 2.6 2.6 0.00 0.00 0.00 75 990.0
20260505062304 68 126 3.5 5.2 0.00 0.00 0.00 73 989.6
20260505061800 68 282 2.6 5.2 0.00 0.00 0.00 73 989.7
20260505061259 68 215 2.6 2.6 0.00 0.00 0.00 73 989.5
20260505060756 68 251 1.7 2.6 0.00 0.00 0.00 72 989.5
20260505060253 69 127 1.7 1.7 0.00 0.00 0.00 71 989.4
20260505055748 69 135 2.6 2.6 0.00 0.00 0.00 70 989.6
20260505055245 69 254 2.6 4.3 0.00 0.00 0.00 71 989.3
20260505054742 69 239 2.6 2.6 0.00 0.00 0.00 72 989.4
20260505054239 69 304 0.9 1.7 0.00 0.00 0.00 70 989.5
20260505053737 69 99 2.6 5.2 0.00 0.00 0.00 70 989.7
20260505053228 69 54 1.7 4.3 0.00 0.00 0.00 70 989.6
20260505052726 69 242 2.6 4.3 0.00 0.00 0.00 71 989.6
20260505052222 69 86 0.9 1.7 0.00 0.00 0.00 71 989.7
20260505051719 68 93 2.6 2.6 0.00 0.00 0.00 72 989.6
20260505051217 69 86 1.7 1.7 0.00 0.00 0.00 72 989.5
20260505050715 69 99 0.0 0.9 0.00 0.00 0.00 71 989.5
20260505050213 69 140 2.6 2.6 0.00 0.00 0.00 71 989.3
20260505041642 69 94 0.9 1.7 0.00 0.34 0.34 71 988.9
20260505041140 69 231 3.5 4.3 0.00 0.34 0.34 70 988.9
20260505040637 69 192 2.6 2.6 0.00 0.34 0.34 70 988.9
20260505040134 69 126 1.7 4.3 0.00 0.34 0.34 70 989.1
20260505035630 69 73 0.9 0.9 0.00 0.34 0.34 70 989.1
20260505035126 69 157 1.7 2.6 0.00 0.34 0.34 70 989.1
20260505034623 70 288 3.5 5.2 0.00 0.34 0.34 70 989.0
20260505034120 69 251 2.6 2.6 0.00 0.34 0.34 71 989.0
20260505033617 70 17 0.9 2.6 0.00 0.34 0.34 70 989.1
20260505033116 69 193 1.7 1.7 0.00 0.34 0.34 70 989.2
20260505032613 69 17 1.7 1.7 0.00 0.34 0.34 71 989.2
20260505032109 70 91 0.0 0.0 0.00 0.34 0.34 70 989.3
20260505031606 70 84 0.9 1.7 0.00 0.34 0.34 70 989.4
20260505031103 70 221 0.9 1.7 0.00 0.34 0.34 70 989.1
20260505030600 70 217 0.9 2.6 0.00 0.34 0.34 69 989.1
20260505030055 70 186 2.6 4.3 0.00 0.34 0.34 68 989.1
20260505025551 70 104 1.7 1.7 0.00 0.34 0.34 69 989.1
20260505025051 70 125 1.7 2.6 0.00 0.34 0.34 68 989.2
20260505024547 70 187 0.9 0.9 0.00 0.34 0.34 68 989.2
20260505024045 70 162 1.7 2.6 0.00 0.34 0.34 69 989.2
20260505023542 70 121 1.7 1.7 0.00 0.34 0.34 70 988.8
20260505023039 70 124 1.7 1.7 0.00 0.34 0.34 71 989.0
20260505022537 70 155 2.6 4.3 0.00 0.34 0.34 69 988.6
20260505022034 70 222 4.3 5.2 0.00 0.34 0.34 68 988.6
20260505021530 70 83 2.6 2.6 0.00 0.34 0.34 70 988.6
20260505021027 70 92 2.6 5.2 0.00 0.34 0.34 70 988.4
20260505020526 70 145 1.7 2.6 0.00 0.34 0.34 71 988.5
20260505020024 70 133 2.6 4.3 0.00 0.34 0.34 70 988.3
20260505015521 69 212 1.7 2.6 0.00 0.34 0.34 70 988.2
20260505015018 70 170 3.5 4.3 0.00 0.34 0.34 70 988.2
20260505014515 70 77 2.6 4.3 0.00 0.34 0.34 70 988.2
20260505014012 70 80 0.9 0.9 0.00 0.34 0.34 71 988.3
20260505013509 70 237 1.7 2.6 0.00 0.34 0.34 70 988.1
20260505013006 69 97 0.0 0.9 0.00 0.34 0.34 72 988.1
20260505012504 69 177 1.7 1.7 0.00 0.34 0.34 74 988.0
20260505012001 69 89 1.7 2.6 0.00 0.34 0.34 74 988.1
20260505011456 69 109 1.7 1.7 0.00 0.34 0.34 75 987.9
20260505010954 68 203 1.7 2.6 0.00 0.34 0.34 75 988.2
20260505010449 68 126 1.7 2.6 0.00 0.34 0.34 78 988.2
20260505005945 68 92 0.0 0.9 0.00 0.34 0.34 78 988.2
20260505005442 68 71 0.9 0.9 0.00 0.34 0.34 79 988.0
20260505004940 66 83 0.0 0.0 0.00 0.34 0.34 84 988.3
20260505004436 65 103 0.9 1.7 0.00 0.34 0.34 91 988.1
20260505003933 65 58 0.0 0.0 0.00 0.34 0.34 92 988.2
20260505003431 65 146 0.0 0.9 0.07 0.34 0.34 93 988.4
20260505002927 65 75 0.0 0.0 0.07 0.34 0.34 93 988.2
20260505002423 65 44 0.0 0.0 0.00 0.33 0.33 91 988.2
20260505001922 66 49 0.0 0.0 0.47 0.33 0.33 88 988.2
20260505001419 68 26 0.9 1.7 0.66 0.33 0.33 83 988.3
20260505000916 73 69 0.9 1.7 0.31 0.27 0.27 73 987.9
20260505000414 74 226 2.6 4.3 0.00 0.22 0.22 61 987.2
20260504235910 74 192 0.9 1.7 0.00 0.22 0.22 60 987.3
20260504235408 75 99 1.7 1.7 0.00 0.22 0.22 60 987.6
20260504234903 75 93 0.9 2.6 0.00 0.22 0.22 57 987.3
20260504234401 75 96 1.7 1.7 0.00 0.22 0.22 58 987.5
20260504233858 75 214 3.5 6.1 0.00 0.22 0.22 57 987.7
20260504233353 75 191 1.7 2.6 0.00 0.22 0.22 57 987.7
20260504232850 75 64 0.9 0.9 0.00 0.22 0.22 58 987.8
20260504232348 75 140 1.7 1.7 0.00 0.22 0.22 60 987.6
20260504231844 75 50 2.6 4.3 0.00 0.22 0.22 59 987.7
20260504231341 75 170 1.7 1.7 0.00 0.22 0.22 60 988.1
20260504230837 75 104 0.0 0.9 0.00 0.22 0.22 60 988.3
20260504230335 75 58 1.7 2.6 0.00 0.22 0.22 61 988.4
20260504225833 76 183 3.5 5.2 0.00 0.22 0.22 59 988.3
20260504225329 76 279 0.9 1.7 0.00 0.22 0.22 62 988.3
20260504224827 76 174 0.9 1.7 0.00 0.22 0.22 61 988.4
20260504224324 76 18 0.9 1.7 0.00 0.22 0.22 62 988.7
20260504223821 77 159 1.7 4.3 0.00 0.22 0.22 60 988.5
20260504223316 77 95 0.9 0.9 0.00 0.22 0.22 61 988.5
20260504222813 76 127 0.9 1.7 0.00 0.22 0.22 62 988.5
20260504222310 76 221 0.9 1.7 0.00 0.22 0.22 62 988.6
20260504221808 76 175 0.9 1.7 0.00 0.22 0.22 63 988.8
20260504221304 76 250 1.7 2.6 0.00 0.22 0.22 63 988.5
20260504220801 76 127 2.6 2.6 0.00 0.22 0.22 62 988.4
20260504220258 76 123 0.0 0.9 0.00 0.22 0.22 62 988.7
20260504215756 76 123 0.9 1.7 0.00 0.22 0.22 63 988.7
20260504215252 76 178 0.0 0.9 0.00 0.22 0.22 64 988.8
20260504214748 75 117 2.6 4.3 0.00 0.22 0.22 63 988.8
20260504214244 75 274 2.6 2.6 0.00 0.22 0.22 62 988.9
20260504213741 75 200 1.7 1.7 0.00 0.22 0.22 61 988.6
20260504213237 75 92 0.9 1.7 0.00 0.22 0.22 64 988.6
20260504212735 74 71 1.7 1.7 0.00 0.22 0.22 65 988.6
20260504212231 73 120 3.5 7.0 0.00 0.22 0.22 64 988.8
20260504211729 73 243 4.3 5.2 0.00 0.22 0.22 66 988.7
20260504211225 73 133 5.2 7.8 0.00 0.22 0.22 67 988.5
20260504210722 73 39 0.0 0.9 0.00 0.22 0.22 67 988.9
20260504210219 73 253 1.7 4.3 0.00 0.22 0.22 70 988.6
20260504205716 73 212 2.6 4.3 0.00 0.22 0.22 69 989.0
20260504205214 72 188 2.6 4.3 0.00 0.22 0.22 69 989.3
20260504204712 72 106 1.7 1.7 0.00 0.22 0.22 71 989.3
20260504204210 71 172 2.6 4.3 0.00 0.22 0.22 71 989.5
20260504203709 71 197 3.5 5.2 0.00 0.22 0.22 71 989.5
20260504203206 71 206 0.9 1.7 0.00 0.22 0.22 71 989.4
20260504202700 70 74 1.7 1.7 0.00 0.22 0.22 72 989.4
20260504202158 69 277 0.9 1.7 0.00 0.22 0.22 75 989.4
20260504201655 69 95 1.7 2.6 0.00 0.22 0.22 74 989.3
20260504201152 68 168 0.0 0.9 0.00 0.22 0.22 76 989.2
20260504200649 67 137 2.6 4.3 0.00 0.22 0.22 78 989.3
20260504200146 67 62 0.9 1.7 0.00 0.22 0.22 79 989.4
20260504195642 67 106 0.9 0.9 0.00 0.22 0.22 80 989.8
20260504195138 66 74 0.9 1.7 0.00 0.22 0.22 80 989.7
20260504194635 66 190 0.0 1.7 0.00 0.22 0.22 82 990.1
20260504194131 66 159 1.7 1.7 0.00 0.22 0.22 84 990.5
20260504193627 66 122 1.7 1.7 0.00 0.22 0.22 85 990.4
20260504193126 65 127 1.7 1.7 0.00 0.22 0.22 86 990.7
20260504192623 64 167 2.6 2.6 0.00 0.22 0.22 88 990.9
20260504192121 64 170 2.6 2.6 0.12 0.22 0.22 89 991.4
20260504191620 64 109 2.6 2.6 0.17 0.22 0.22 89 991.5
20260504191115 65 141 2.6 2.6 0.05 0.20 0.20 86 991.9
20260504190612 64 184 3.5 4.3 0.07 0.19 0.19 88 991.8
20260504190108 65 103 2.6 2.6 0.14 0.19 0.19 88 991.4
20260504185605 65 79 0.9 0.9 0.07 0.18 0.18 86 991.8
20260504185101 66 80 0.9 0.9 0.00 0.17 0.17 85 992.1
20260504184557 66 71 0.0 0.0 0.00 0.17 0.17 81 992.7
20260504184052 66 57 0.0 0.0 0.00 0.17 0.17 80 992.9
20260504183550 67 58 0.0 0.0 0.00 0.17 0.17 79 992.7
20260504183048 68 46 0.0 0.0 0.00 0.17 0.17 76 992.5
20260504182545 68 44 0.0 0.0 0.00 0.17 0.17 75 992.6
20260504182042 69 286 2.6 2.6 0.00 0.17 0.17 72 992.1
20260504181539 69 49 0.9 0.9 0.00 0.17 0.17 73 991.7
20260504181037 69 177 0.9 0.9 0.00 0.17 0.17 72 991.6
20260504180536 69 57 0.9 0.9 0.00 0.17 0.17 72 991.5
20260504180034 69 241 1.7 1.7 0.00 0.17 0.17 71 991.4
20260504175531 70 258 2.6 2.6 0.00 0.17 0.17 70 991.2
20260504175028 72 114 0.9 0.9 0.00 0.17 0.17 68 990.6
20260504174526 72 285 1.7 2.6 0.00 0.17 0.17 68 990.3
20260504174022 69 200 3.5 5.2 0.00 0.17 0.17 70 990.1
20260504173519 69 175 1.7 1.7 0.00 0.17 0.17 73 990.3
20260504173017 69 101 1.7 1.7 0.00 0.17 0.17 71 990.1
20260504172513 69 73 2.6 4.3 0.00 0.17 0.17 72 991.1
20260504172009 69 222 1.7 1.7 0.00 0.17 0.17 72 991.5
20260504171506 69 83 0.9 1.7 0.00 0.17 0.17 71 991.3
20260504171003 70 255 1.7 1.7 0.00 0.17 0.17 70 991.2
20260504170459 70 253 1.7 2.6 0.00 0.17 0.17 71 990.9
20260504160419 69 110 1.7 2.6 0.00 0.17 0.17 65 992.5
20260504150843 72 139 0.9 0.9 0.00 0.17 0.17 69 992.2
20260504150339 73 272 1.7 4.3 0.00 0.17 0.17 66 992.2
20260504141310 67 350 1.7 1.7 0.00 0.17 0.17 77 992.5
20260504140806 66 53 0.9 0.9 0.00 0.17 0.17 79 992.6
20260504140302 65 229 0.9 1.7 0.00 0.17 0.17 80 992.6
20260504130731 62 102 1.7 2.6 0.00 0.17 0.17 85 993.0
20260504130226 62 139 0.9 2.6 0.00 0.17 0.17 86 993.2